sat.trackr.live / text

‹ back to catalog

TIANMU-1 04

NORAD 55974 · 2023-039B

PAYLOAD ACTIVE UNKNOWN

§ Identity

Operator
Country
PRC
Launch date
2023-03-22
Launch site
JSC
Launch vehicle
Mass (kg)
RCS (m²)

Purposes: earth_obs

External: N2YO · Heavens-Above · Gunter

§ Orbital elements

Epoch: 2026-09-20T04:26:09.462336Z

Period
92.88 min
Inclination
97.5199°
Eccentricity
0.0004894
Mean motion
15.50433931 rev/d
Perigee alt
412.1 km
Apogee alt
418.8 km
Semi-major
6,793.6 km
B*
2.1650e-4
RAAN
80.2553°
Arg perigee
97.4542°
Mean anomaly
262.7265°
Rev number
19,555

§ Raw data

TIANMU-1 041 55974U 23039B   26263.18483174  .00012229  00000+0  21650-3 0  99942 55974  97.5199  80.2553 0004894  97.4542 262.7265 15.50433931195550

JSON: /api/v1/satellites/55974 · /tle

For live sub-satellite position, see the globe view (requires WebGL).

§ Visibility from observer

Set your observer location to see the next 7 days of passes ≥ 10°. The values pass through the URL so the page stays shareable.

No JS? Fill the form by hand. The geolocation button needs JavaScript.